Location: Audignicourt
(49.4788°N, 3.1340°E)
Time: 15:11:19
(UTC+00:00)

Helios 1B rocket - Pass Details

Date: 15 May 2026
Orbit: 459 x 465 km, 98.2° (Epoch: 10 June)

Event Time Altitude Azimuth Distance (km) Brightness Sun altitude
Exits shadow 22:59:37 43° 254° (WSW) 675 2.7 -20.8°
Maximum altitude 22:59:44 43° 260° (W) 673 2.7 -20.8°
Drops below altitude 10° 23:03:07 10° 333° (NNW) 1,643 5.8 -20.9°
Sets 23:05:15 0° 341° (NNW) 2,524 7.2 -20.9°
